Regional Weather Roundup
Issued by NWS

Home | Current Version | Previous Version | Graphics & Text | Print | Product List | Glossary On
Versions: 1 2 3 4 5 6 7 8 9 10 11 12 13 14 15 16 17 18 19 20 21 22 23 24 25 26 27 28 29 30 31 32 33 34 35 36 37 38 39 40 41 42 43 44 45 46 47 48 49 50
000
ASUS43 KMPX 181401
RWRMN
WEATHER ROUNDUP FOR MINNESOTA
NATIONAL WEATHER SERVICE TWIN CITIES/CHANHASSEN MN
800 AM CST MON DEC 18 2017


NOTE: "FAIR" INDICATES FEW OR NO CLOUDS BELOW 12,000 FEET WITH NO
SIGNIFICANT WEATHER AND/OR OBSTRUCTIONS TO VISIBILITY. N/A MEANS
CURRENT SKY AND/OR WEATHER CONDITIONS ARE NOT AVAILABLE.

MNZ060>063-068>070-181500-
   Twin Cities Metro

CITY           SKY/WX    TMP DP  RH WIND       PRES   REMARKS
TWIN CITIES    MOCLDY    25  24  96 SE6       29.81F WCI  18
ST PAUL        PTCLDY    25  24  96 SE7       29.83S FOG     WCI  17
CRYSTAL        CLOUDY    26  22  84 S7        29.78F FOG     WCI  18
BLAINE         MOCLDY    27  27 100 S7        29.79S FOG     WCI  19
LAKEVILLE      CLOUDY    25  25 100 S6        29.81F FOG     WCI  18
EDEN PRAIRIE   CLOUDY    28  25  88 S7        29.79F FOG     WCI  21
SOUTH ST PAUL  CLOUDY    26  26  97 S5        29.82R FOG     WCI  21
LAKE ELMO      MOCLDY    27  27 100 S7        29.82S FOG     WCI  19
$$
MNZ001>005-007-008-013>017-022>024-027-028-181500-
   Northwest Minnesota

CITY           SKY/WX    TMP DP  RH WIND       PRES   REMARKS
BEMIDJI        CLOUDY    28  26  96 S7        29.59F FOG     WCI  20
HALLOCK        CLOUDY    30  27  86 S13       29.52S WCI  20
ROSEAU         MOCLDY    30  25  80 S10       29.50F WCI  21
WARROAD        CLOUDY    30  27  86 SW10      29.51S WCI  21
CROOKSTON      PTCLDY    27  25  93 SW12      29.59F WCI  16
FOSSTON        CLEAR     25  23  93 S14       29.60S WCI  13
DETROIT LAKES  CLEAR     30  28  93 SW7       29.64F WCI  23
MOORHEAD       CLOUDY    25  23  93 CALM      29.65S
PARK RAPIDS    CLOUDY    23  20  88 S7        29.63F WCI  15
MAHNOMEN       FAIR      23  22  96 S12       29.62R WCI  12
$$
MNZ006-009>011-018-025>026-181500-
   North Central Minnesota

CITY           SKY/WX    TMP DP  RH WIND       PRES   REMARKS
BAUDETTE       CLOUDY    28  26  92 S12       29.51F WCI  18
FLAG ISLAND    CLOUDY    25  23  93 SW5       29.48F WCI  19
INTL FALLS     CLOUDY    30  27  88 SW10      29.55F FOG     WCI  21
WASKISH        CLOUDY    30  28  93 SW7       29.57F WCI  23
BIG FORK       CLOUDY    28  27  93 S10       29.60F FOG     WCI  19
LONGVILLE      CLOUDY    25  23  93 S5        29.66S FOG     WCI  19
GRAND RAPIDS   CLOUDY    23  21  92 S7        29.67S FOG     WCI  15
CRANE LAKE     CLOUDY    28  27  93 S7        29.61F WCI  21
ORR            CLOUDY    28  25  86 S5        29.58S WCI  23
COOK           CLOUDY    27  25  93 S9        29.62F FOG     WCI  17
WALKER         FAIR      27  25  93 SW9       29.62F WCI  18
$$
MNZ012-019>021-037-181500-
   Northeast Minnesota

CITY           SKY/WX    TMP DP  RH WIND       PRES   REMARKS
DULUTH         CLOUDY    23  23 100 SW13      29.68S FOG     WCI  11
ELY            CLOUDY    27  27 100 SW8       29.62F WCI  18
HIBBING        CLOUDY    22  20  92 S5        29.65F WCI  16
EVELETH        CLOUDY    24  20  85 S8        29.66F WCI  15
DULUTH HARBOR  CLOUDY    27  25  93 SW7       29.73F FOG     WCI  19
TWO HARBORS    CLOUDY    28  23  80 SW12      29.68S HAZE    WCI  18
GRAND MARAIS     N/A     30  26  85 W6        29.69F WCI  24
G MARAIS ARPRT FOG       21  18  86 CALM      29.63F VSB 3/4
$$
MNZ029>031-032-039>041-046>048-054>057-064-181500-
   West Central Minnesota

CITY           SKY/WX    TMP DP  RH WIND       PRES   REMARKS
FERGUS FALLS   CLOUDY    27  27 100 S8        29.71S WCI  18
WHEATON        CLOUDY    30  27  86 SW7       29.71F WCI  23
MORRIS         CLOUDY    27  25  93 S6        29.70F WCI  20
ALEXANDRIA     CLEAR     28  25  88 SW10      29.69F WCI  19
ELBOW LAKE     FAIR      26  25  97 SW9       29.69F WCI  16
WADENA         CLOUDY    25  25 100 S5        29.65F WCI  19
GLENWOOD       CLEAR     27  25  93 SW9       29.71S WCI  17
APPLETON       CLOUDY    30  27  86 SW8       29.73F WCI  23
BENSON         CLOUDY    27  25  93 SW8       29.74F WCI  18
ORTONVILLE     CLOUDY    30  25  80 CALM      29.72F
MADISON        PTCLDY    34  28  80 W6        29.74F WCI  29
WILLMAR        FAIR      28  27  93 SW3       29.75F
$$
MNZ033>034-036-042>043-049>051-058-059-181500-
   Central Minnesota

CITY           SKY/WX    TMP DP  RH WIND       PRES   REMARKS
ST CLOUD       CLOUDY    23  22  96 S8        29.73F FOG     WCI  14
SAUK CENTRE    FAIR      25  23  91 S6        29.71F WCI  18
PAYNESVILLE    CLEAR     28  27  94 SW8       29.74S WCI  20
AITKIN         CLOUDY    21  19  93 S6        29.67F FOG     WCI  14
PINE RIVER     CLOUDY    19  18  93 SE3       29.70S FOG
BRAINERD       CLOUDY    27  23  85 S8        29.69F WCI  19
STAPLES        CLOUDY    27  25  93 S6        29.67S WCI  20
LONG PRAIRIE   FAIR      27  25  93 S8        29.70S WCI  18
LITTLE FALLS   CLEAR     27  21  80 S5        29.72S WCI  21
LITCHFIELD     CLEAR     28  28 100 S3        29.75F
BUFFALO        CLOUDY    27  24  90 S6        29.77F FOG     WCI  20
MAPLE LAKE     PTCLDY    26  26  97 S5        29.76F FOG     WCI  21
HUTCHINSON     CLOUDY    29  27  92 S7        29.78F WCI  22
$$
MNZ037-044-045-052-053-181500-
   East Central Minnesota

CITY           SKY/WX    TMP DP  RH WIND       PRES   REMARKS
PRINCETON      CLOUDY    25  23  93 S7        29.74F FOG     WCI  17
MORA           PTCLDY    25  23  93 S6        29.75F FOG     WCI  18
CAMBRIDGE      MOCLDY    28  25  86 S9        29.76F FOG     WCI  20
RUSH CITY      MOCLDY    25  23  94 S8        29.76F FOG     WCI  16
MOOSE LAKE     CLOUDY    27  23  86 S7        29.71S FOG     WCI  19
HINCKLEY       CLOUDY    27  27 100 S6        29.75F FOG     WCI  20
CLOQUET        CLOUDY    25  21  86 S10       29.69F FOG     WCI  15
MCGREGOR       CLOUDY    27  23  86 S7        29.70S WCI  19
$$
MNZ071>073-080-081-089-090-097-098-181500-
   Southwest Minnesota

CITY           SKY/WX    TMP DP  RH WIND       PRES   REMARKS
MONTEVIDEO     CLOUDY    28  27  93 SW6       29.75S WCI  22
GRANITE FALLS  CLOUDY    29  26  90 S9        29.77F WCI  21
CANBY          PTCLDY    33  28  85 SW14G20   29.75F WCI  23
MARSHALL       CLOUDY    30  26  85 SW16      29.76F WCI  19
REDWOOD FALLS  CLOUDY    29  25  85 SW13      29.77F WCI  19
OLIVIA         CLOUDY    28  25  86 SW9       29.76F WCI  20
PIPESTONE      CLOUDY    25  21  86 SW6       29.78S WCI  18
WINDOM           N/A     27  16  63 S13       29.80S WCI  16
WORTHINGTON    CLOUDY    26  24  92 SW15      29.81S WCI  14
JACKSON        CLOUDY    27  23  86 SW10      29.82S WCI  17
SLAYTON        CLOUDY    26  24  93 SW12      29.79S WCI  16
$$
MNZ065>067-074>077-082>085-091>093-181500-
   South Central Minnesota

CITY           SKY/WX    TMP DP  RH WIND       PRES   REMARKS
MANKATO        CLOUDY    24  22  91 S7        29.82F FOG     WCI  16
NEW ULM        CLOUDY    27  25  93 S9        29.79F WCI  17
ST JAMES       CLOUDY    27  25  93 S13       29.82S WCI  16
FAIRMONT       PTCLDY    25  23  92 S9        29.84R WCI  15
GLENCOE        CLOUDY    29  29 100 S6        29.77F FOG     WCI  23
FARIBAULT      CLOUDY    25  23  93 S8        29.83F FOG     WCI  16
OWATONNA       LGT SNOW  25  23  93 S10G16    29.82F WCI  15
WASECA         CLOUDY    25  23  93 S7        29.85S FOG     WCI  17
$$
MNZ078>079-086>088-094>096-181500-
   Southeast Minnesota

CITY           SKY/WX    TMP DP  RH WIND       PRES   REMARKS
ROCHESTER      FOG       27  26  96 S14       29.85S VSB 1/4 WCI  16
RED WING       CLOUDY    27  25  93 CALM      29.84S FOG
STANTON        PTCLDY    28  25  89 S9        29.82S FOG     WCI  19
DODGE CENTER   FOG       27  25  93 S8        29.84S VSB 1/2 WCI  18
WINONA           N/A     30  28  93 CALM      29.89F
PRESTON        CLOUDY    26  25  95 S7        29.86F FOG     WCI  18
$$
ABBREVIATIONS USED IN REMARKS
   TC - TEMPERATURES IN CELSIUS
  WCI - WIND CHILL INDEX
   HX - HEAT INDEX
  VSB - VISIBILITY
$$



USA.gov is the U.S. government's official web portal to all federal, state and local government web resources and services.